EHI
0 0 0 0 0 0 0 0 0 0 0 0 0 0 0 0 0 0 0 0 0 0 0 0 0 0 0 0 0 0 0 0 0 0 0 0 0 0 0 0 0 0 0 0
0 0 0 0 0 0 0 0 0 0 0 0 0 0 0 0 0 0 0 0 0 0 0 0 0 0 0 0 0 0 0 0 0 0 0 0 0 0 0 0 0 0 0 0
0 0 0 0 0 0 0 0 0 0 0 0 0 0 0 0 0 0 0 0 0 0 0 0 0 0 0 0 0 0 0 0 0 0 0 0 0 0 0 0 0 0 0 0
0 0 0 0 0 0 0 0 0 0 0 0 0 0 0 0 0 0 0 0 0 0 1 1 0 0 0 0 0 0 0 0 0 0 0 0 0 0 0 0 0 0 0 0
0 0 0 0 0 0 0 0 0 0 0 0 0 0 0 0 0 0 0 0 0 0 1 1 1 0 0 0 0 0 0 0 0 0 0 0 0 0 0 0 0 0 0 0
0 0 0 0 0 0 0 0 0 0 0 0 0 0 0 0 0 0 0 0 0 0 1 1 1 0 0 0 0 0 0 0 0 0 0 0 0 0 0 0 0 0 0 0
0 0 0 0 0 0 0 0 0 0 0 0 0 0 0 0 0 0 0 0 0 0 0 0 0 0 0 0 0 0 0 0 0 0 0 0 0 0 0 0 0 0 0 0
0 0 0 0 0 0 0 0 0 0 0 0 0 0 0 0 0 0 0 0 0 0 0 0 0 0 0 0 0 0 0 0 0 0 0 0 0 0 0 0 0 0 0 0
0 0 0 0 0 0 0 0 0 0 0 0 0 0 0 0 0 0 0 0 0 0 0 0 0 0 0 0 0 0 0 0 0 0 0 0 0 0 0 0 0 0 0 0
0 0 0 0 0 0 0 0 0 0 0 0 0 0 0 0 0 0 0 0 0 0 0 0 0 0 0 0 0 0 0 0 0 0 0 0 0 0 0 0 0 0 0 0
0 0 0 0 0 0 0 0 0 0 0 0 0 0 0 0 0 0 0 0 0 0 0 0 0 0 0 0 0 0 0 0 0 0 0 0 0 0 0 0 0 0 0 0
0 0 0 0 0 0 0 0 0 0 0 0 0 0 0 0 0 0 0 0 0 0 0 0 0 0 0 0 0 0 0 0 0 0 0 0 0 0 0 0 0 0 0 0
0 0 0 0 0 0 0 0 0 0 0 0 0 0 0 0 0 0 0 0 0 0 0 0 0 0 0 0 0 0 0 0 0 0 0 0 0 0 0 0 0 0 0 0
0 0 0 0 0 0 0 0 0 0 0 0 0 0 0 0 0 0 0 0 0 0 0 0 0 0 0 0 0 0 0 0 0 0 0 0 0 0 0 0 0 0 0 0
0 0 0 0 0 0 0 0 0 0 0 0 0 0 0 0 0 0 0 0 0 0 0 0 0 0 0 0 0 0 0 0 0 0 0 0 0 0 0 0 0 0 0 0
0 0 0 0 0 0 0 0 0 0 0 0 0 0 0 0 0 0 0 0 0 0 0 0 0 0 0 0 0 0 0 0 0 0 0 0 0 0 0 0 0 0 0 0
0 0 0 0 0 0 0 0 0 0 0 0 0 0 0 0 0 0 0 0 0 0 0 0 0 0 0 0 0 0 0 0 0 0 0 0 0 0 0 0 0 0 0 0
0 0 0 0 0 0 0 0 0 0 0 0 0 0 0 0 0 0 0 0 0 0 0 0 0 0 0 0 0 0 0 0 0 0 0 0 0 0 0 0 0 0 0 0
0 0 0 0 0 0 0 0 0 0 0 0 0 0 0 0 0 0 0 0 0 0 0 0 0 0 0 0 0 0 0 0 0 0 0 0 0 0 0 0 0 0 0 0
0 0 0 0 0 0 0 0 0 0 0 0 0 0 0 0 0 0 0 0 0 0 0 0 0 0 0 0 0 0 0 0 0 0 0 0 0 0 0 0 0 0 0 0
0 0 0 0 0 0 0 0 0 0 0 0 0 0 0 0 0 0 0 0 0 0 0 0 0 0 0 0 0 0 0 0 0 0 0 0 0 0 0 0 0 0 0 0
0 0 0 0 0 0 0 0 0 0 0 0 0 0 0 0 0 0 0 0 0 0 0 0 0 0 0 0 0 0 0 0 0 0 0 0 0 0 0 0 0 0 0 0
0 0 0 0 0 0 0 0 0 0 0 0 0 0 0 0 0 0 0 0 0 0 0 0 0 0 0 0 0 0 0 0 0 0 0 0 0 0 0 0 0 0 0 0
0 0 0 0 0 0 0 0 0 0 0 0 0 0 0 0 0 0 0 0 0 0 0 0 0 0 0 0 0 0 0 0 0 0 0 0 0 0 0 0 0 0 0 0
0 0 0 0 0 0 0 0 0 0 0 0 0 0 0 0 0 0 0 0 0 0 0 0 0 0 0 0 0 0 0 0 0 0 0 0 0 0 0 0 0 0 0 0
0 0 0 0 0 0 0 0 0 0 0 0 0 0 0 0 0 0 0 0 0 0 0 0 0 0 0 0 0 0 0 0 0 0 0 0 0 0 0 0 0 0 0 0
Wind_Speed
1 3 2 5 5 5 4 3 2 3 3 5 6 4 3 4 6 6 5 5 5 3 2 3 5 6 6 5 5 6 6 4 4 3 3 2 1 1 1 1 1 2 2 3
2 2 5 5 4 4 3 3 3 2 4 5 6 4 2 3 4 6 7 6 5 3 3 4 5 5 5 5 5 5 6 5 4 3 2 2 2 1 0 1 1 1 1 1
5 4 5 5 5 4 3 5 6 6 3 5 7 4 3 2 3 3 3 4 5 6 6 5 5 4 4 5 5 6 5 5 4 4 3 3 3 3 2 2 1 1 1 0
3 3 4 6 5 6 4 6 7 7 5 1 4 3 3 0 2 2 2 3 4 4 4 4 4 4 4 4 4 5 5 5 4 4 4 3 2 0 1 1 1 2 1 1
3 3 5 6 6 6 4 4 6 6 5 4 3 5 3 0 2 1 2 3 4 4 5 5 4 4 4 4 5 5 5 5 4 4 4 4 2 1 1 1 1 2 2 2
3 2 3 4 3 5 4 6 6 4 4 2 2 4 3 4 6 5 4 4 4 4 5 4 3 4 5 4 5 5 5 4 3 4 3 3 2 1 1 1 1 2 2 2
1 1 1 3 4 2 5 6 3 3 3 2 2 2 5 5 6 8 8 6 5 5 5 5 5 4 4 5 5 5 5 4 3 3 2 2 2 1 0 1 0 1 1 2
2 2 3 3 5 5 4 6 6 5 4 1 1 2 4 2 4 6 7 7 6 5 5 5 4 4 4 5 5 5 5 3 2 2 2 1 1 1 0 0 0 0 1 2
4 3 3 2 3 6 5 3 4 6 3 2 1 1 3 2 5 6 7 7 6 5 5 5 4 4 4 4 4 4 5 3 2 2 2 2 1 1 1 1 1 1 1 1
5 2 2 2 3 1 5 6 5 5 5 3 1 3 6 8 9 8 8 7 6 5 5 4 4 3 3 3 4 4 4 4 2 2 2 2 1 1 1 2 2 2 2 2
4 4 1 2 4 6 4 4 4 4 5 6 4 6 8 13 13 12 10 8 8 7 6 5 4 3 4 4 4 4 3 3 3 2 2 3 2 2 2 2 2 2 2 2
4 5 2 5 5 6 5 6 7 6 3 4 4 6 3 11 11 11 10 8 7 7 5 5 4 4 4 4 4 4 3 3 2 2 3 3 2 2 3 2 3 3 3 3
6 6 3 2 4 1 3 5 5 6 5 5 5 5 1 7 8 9 10 8 7 7 6 5 5 4 4 4 4 3 3 3 2 3 4 3 3 3 3 3 3 3 3 3
6 5 6 8 7 6 5 5 6 6 5 5 6 6 4 8 10 9 9 9 8 7 7 6 4 4 3 3 3 3 3 3 3 4 4 4 3 2 2 3 3 3 3 3
5 3 4 5 5 5 5 7 7 6 8 8 8 11 13 15 14 13 11 10 9 8 7 7 5 4 4 4 3 3 3 3 4 5 4 2 2 2 3 3 3 4 4 4
3 3 1 2 3 3 3 6 6 6 6 6 6 7 6 8 8 9 11 12 11 9 8 7 6 6 5 4 4 3 3 3 4 4 3 2 3 3 3 3 3 4 4 4
3 4 3 2 3 2 4 8 9 7 7 10 10 10 9 10 14 16 14 13 12 10 9 8 7 6 5 5 4 4 3 3 4 4 3 2 3 3 3 4 4 4 4 4
7 5 4 1 1 4 10 6 7 8 7 8 8 10 16 16 14 11 11 13 12 10 9 8 7 6 4 4 4 4 4 4 4 3 2 2 2 2 3 3 4 3 3 3
6 8 4 3 2 6 7 4 6 7 5 6 9 10 10 9 7 2 6 10 11 10 9 7 7 6 6 5 5 6 5 4 4 2 1 1 1 2 3 3 3 3 2 3
4 6 6 4 3 6 9 6 3 7 3 4 10 13 13 12 8 9 9 9 10 9 8 8 7 7 6 5 6 7 5 4 2 1 0 1 1 1 2 2 2 2 2 2
3 3 5 5 5 8 8 3 5 6 9 6 11 15 16 12 10 9 12 10 10 9 9 9 8 7 6 5 6 6 4 2 2 1 1 1 2 2 1 2 2 2 2 3
8 6 6 6 5 10 5 5 7 8 4 7 10 12 12 8 8 12 13 12 12 10 9 9 8 6 5 5 6 5 3 3 2 1 1 1 2 2 2 2 2 3 2 3
7 9 8 10 9 6 4 6 5 5 6 6 9 8 10 11 10 11 11 12 11 10 9 7 8 7 5 5 6 5 3 3 2 1 0 1 2 2 2 2 2 2 2 2
3 3 4 2 4 3 2 2 2 4 6 6 8 10 11 11 12 12 12 11 10 8 8 7 8 7 5 4 5 5 4 3 3 1 1 1 1 2 3 2 1 1 2 3
4 4 3 2 3 1 1 1 3 4 6 7 7 8 11 13 12 11 11 11 10 8 7 7 8 7 6 5 5 4 4 4 3 2 2 2 2 2 2 3 3 3 4 4
4 6 7 7 8 7 6 5 5 7 7 9 9 8 8 11 12 10 10 9 9 8 7 7 7 7 6 5 5 4 4 4 4 2 2 2 2 2 2 3 4 6 6 9
Wind_Direction
98 87 183 203 188 172 149 148 185 200 169 119 122 120 144 145 128 136 153 161 161 166 168 138 141 142 140 139 138 138 133 133 122 105 100 93 82 62 49 38 81 75 62 54
75 218 216 198 181 163 147 168 174 157 145 126 114 97 103 114 143 156 159 160 160 145 117 121 126 132 143 146 140 136 138 137 134 128 129 130 124 118 136 345 18 44 68 42
184 220 192 178 167 167 187 183 174 155 112 92 99 46 1 23 60 91 125 143 149 147 142 139 127 133 139 142 152 150 146 137 127 114 92 68 49 33 20 0 330 307 266 354
221 241 168 167 177 164 188 189 161 139 111 108 114 133 269 298 51 69 90 118 140 148 140 138 130 129 141 152 145 139 136 127 120 111 107 110 110 121 252 256 272 295 293 284
219 179 163 173 183 158 187 147 127 118 111 76 59 111 267 160 129 160 151 140 139 150 142 135 133 132 122 119 124 127 125 120 119 114 118 115 113 200 280 306 317 314 316 303
226 198 168 179 159 150 131 86 74 56 76 88 228 128 223 215 184 171 163 145 134 128 124 122 113 100 90 95 107 113 116 113 116 116 118 123 126 120 23 359 343 320 316 313
16 331 188 146 114 128 106 100 86 48 48 226 214 139 228 217 178 163 154 145 132 125 121 112 107 104 103 106 112 116 116 109 112 113 116 133 144 140 161 272 285 309 310 300
134 256 233 170 160 156 158 137 147 154 168 226 23 196 253 205 152 142 136 136 123 117 118 117 120 121 119 117 118 118 119 116 118 116 112 98 99 100 98 261 226 248 250 259
159 232 269 181 154 136 127 147 155 123 115 100 280 309 347 93 121 128 129 125 127 129 125 119 115 114 118 119 126 131 126 115 118 127 108 71 66 74 47 8 11 334 303 300
148 170 246 193 102 59 147 148 109 119 140 148 209 219 206 187 171 157 151 148 144 132 122 117 114 116 119 120 117 114 117 119 111 108 102 85 69 57 41 32 9 349 330 326
133 134 257 152 186 182 155 140 128 121 145 145 180 248 213 186 177 168 167 163 155 144 136 129 122 117 110 101 98 99 100 96 91 93 86 73 58 49 47 32 354 338 336 339
153 128 189 238 238 185 164 168 151 146 176 159 161 256 251 176 171 162 161 161 156 147 140 130 120 108 98 96 93 94 92 92 95 95 89 82 65 52 43 15 346 345 342 337
147 125 110 352 329 264 192 181 159 135 126 149 158 251 360 143 149 155 154 155 152 144 134 119 111 111 113 111 104 97 91 93 90 86 81 69 52 42 25 1 348 352 353 352
127 129 161 185 203 197 203 196 169 135 146 172 197 192 180 164 160 161 159 157 152 148 144 135 131 131 126 118 111 102 88 85 88 82 75 61 39 27 8 357 355 351 354 359
121 157 206 223 224 196 198 200 191 175 176 175 199 188 195 185 173 168 161 154 149 151 151 152 151 147 133 117 107 100 92 82 86 85 75 60 35 29 20 9 356 352 357 357
126 158 162 288 251 209 213 215 199 194 179 174 161 205 198 166 149 154 161 159 159 162 161 157 153 148 145 139 129 113 103 99 92 87 75 50 38 30 15 359 357 358 352 349
140 134 116 267 302 23 258 221 199 199 188 166 184 203 158 156 171 176 173 169 168 166 161 159 157 156 155 153 142 133 132 110 97 92 76 54 44 30 2 359 5 354 341 347
139 129 131 176 42 225 243 243 194 187 208 192 179 171 170 177 180 177 170 167 167 164 160 158 154 147 144 140 131 122 110 104 98 85 64 42 39 19 0 4 356 340 335 340
147 137 129 136 199 271 285 254 173 163 224 197 171 168 164 132 103 148 182 166 165 163 157 155 152 141 133 129 125 109 99 99 94 85 62 29 34 17 3 354 337 333 343 341
93 111 126 141 175 233 248 258 183 116 230 222 164 157 149 133 155 208 184 158 150 146 145 142 136 124 125 131 121 109 108 105 109 138 170 341 4 7 342 326 321 325 332 326
120 107 144 166 205 254 252 249 115 147 223 199 168 160 161 172 186 168 153 150 147 143 143 139 133 132 142 141 122 117 120 147 190 177 81 12 348 328 311 321 320 325 334 338
174 168 179 157 192 248 245 149 177 207 188 158 167 168 167 154 130 139 149 150 147 143 142 141 136 140 147 143 131 131 158 194 177 124 62 354 336 334 2 351 335 336 341 335
190 187 181 184 208 238 222 193 196 158 149 159 163 165 148 140 144 148 152 152 152 149 150 146 144 146 155 157 146 153 191 185 152 119 31 324 333 336 337 336 330 331 332 324
252 150 134 196 253 251 211 150 135 146 149 150 147 147 148 150 151 150 152 154 153 152 154 149 147 154 170 178 171 177 186 172 150 162 246 285 309 314 318 315 302 303 304 305
224 154 143 203 244 84 318 192 154 124 119 122 128 142 152 148 151 155 157 160 160 158 156 155 160 169 181 183 188 193 185 165 164 192 232 257 264 274 291 290 271 269 259 256
216 173 168 208 208 181 210 209 160 138 141 144 138 137 147 152 154 154 159 162 161 161 159 160 166 173 183 185 195 203 191 175 173 200 231 238 249 262 268 283 299 289 279 291